Tracking 35280 objects as of 7-Sep-2026
HD Live streaming from Space Station
objects crossing your sky now

SL-4 R/B


SL-4 R/B is no longer on orbit


NORAD ID: 10283
Int'l Code: 1977-078B
Launch date: August 24, 1977
Source: Commonwealth of Independent States (former USSR) (CIS)
Launch site: PLESETSK MISSILE AND SPACE COMPLEX (PKMTR)
Decay date: 1977-08-30

Note: This is a ROCKET BODY
Your satellite tracking list
Your tracking list is empty




NASA's NSSDC Master Catalog

Two Line Element Set (TLE):
1 10283U 77078  B 77241.10776481  .04138639 +00000-0 +00000-0 0  9992
2 10283 062.7905 122.2706 0050265 069.7940 291.5962 16.30556870000733
Source of the keplerian elements: AFSPC